Torna al catalogo

DFS 1

AttivoMilitareGEO
NORAD 20041·PAYLOAD·🇩🇪 Germany

Lanciato Jun 5, 1989 da Guiana Space Centre

Loading…

TLE

AggiornatoSource: Space-Track

Epoca: Sep 14, 2026, 01:59 UTC

1 20041U 89041B   26257.08302544 -.00000271  00000-0  00000-0 0  9998
2 20041  13.9480 345.8678 0014114 299.2633  52.2549  1.00657487125384

Traccia DFS 1 in tempo reale con AllMySat

Download on the App Store